Wind_Speed
8 8 8 8 8 8 8 7 8 8 8 9 8 8 9 9 9 9 8 7 6 5 5 6 6 5 5 5 4 4 4 4 4 5 6 7 8 8 9 10 10 11 12 13
8 8 7 8 9 9 8 8 9 9 9 9 9 9 9 10 9 9 8 7 6 5 5 5 5 5 5 4 4 4 4 4 5 5 6 7 7 8 9 10 11 12 13 14
7 7 8 7 8 8 8 8 8 9 10 9 9 8 9 9 9 9 8 7 7 6 5 5 6 5 4 4 4 4 4 5 5 6 7 7 8 9 10 11 11 12 13 14
7 7 8 7 8 7 8 8 8 8 8 9 8 9 9 9 8 8 7 7 6 6 5 6 6 5 5 4 4 5 5 5 6 6 7 7 8 9 10 11 12 13 14 15
6 7 7 7 7 7 7 8 8 7 7 8 9 9 10 9 8 7 6 6 6 6 6 6 6 5 4 5 5 4 5 6 6 7 7 8 9 10 11 12 12 13 14 15
7 8 8 7 7 7 7 8 7 7 8 7 8 8 10 9 7 7 7 6 6 6 6 6 6 5 4 4 5 5 5 5 5 6 7 8 9 10 11 11 12 13 14 14
8 8 8 7 7 7 7 8 7 7 8 8 8 7 8 7 7 6 6 6 5 5 6 7 6 6 5 4 5 5 5 5 6 7 7 8 9 10 11 11 12 13 13 14
8 8 8 7 7 7 6 7 7 6 7 7 8 8 7 6 6 6 6 6 5 5 6 6 6 5 5 5 5 5 5 6 7 7 8 8 9 9 10 10 11 12 13 13
7 7 7 7 7 7 7 7 7 6 6 6 7 7 6 5 5 5 6 7 6 5 6 6 6 6 5 5 5 5 5 6 7 7 7 8 9 9 9 10 11 12 12 13
7 7 7 7 7 7 7 7 7 6 6 6 6 6 5 4 3 4 6 7 6 6 6 6 6 6 5 5 5 5 6 7 7 8 8 8 9 9 10 10 12 12 13 13
8 7 7 7 7 6 7 7 7 7 6 6 6 6 5 4 3 4 5 5 6 6 5 5 6 5 5 5 5 6 7 7 8 9 8 9 9 10 10 11 11 12 13 14
8 8 8 8 8 8 7 6 6 6 6 6 5 5 4 3 3 4 4 4 4 5 5 5 5 5 5 6 6 7 7 8 9 9 9 9 10 11 11 11 12 12 13 14
9 9 9 9 9 9 8 8 7 6 5 5 5 5 4 3 3 3 3 4 4 5 5 6 6 6 6 6 7 7 8 8 9 9 9 10 10 11 11 12 12 13 14 14
9 10 10 9 8 8 9 9 9 8 7 5 4 4 4 4 3 4 4 4 5 5 6 6 6 6 7 7 8 8 9 9 9 9 10 10 11 12 12 13 14 14 15 15
11 11 11 10 9 9 10 10 10 9 8 8 6 5 5 5 5 5 5 6 6 6 6 7 7 7 8 8 9 9 9 10 10 10 10 11 12 12 13 14 15 15 15 15
13 13 12 11 11 11 11 11 11 10 9 8 8 6 6 6 6 6 6 7 7 7 8 9 9 9 9 9 9 10 10 11 11 11 12 12 13 14 15 16 16 16 16 16
14 14 13 13 12 12 11 11 12 11 10 10 9 9 9 8 8 8 8 8 8 9 10 10 10 10 10 11 11 11 12 12 13 13 14 15 15 16 17 17 18 18 18 18
16 14 14 14 14 13 11 12 12 12 12 11 11 10 10 10 10 10 10 10 11 11 11 11 12 12 12 13 13 13 14 14 15 16 16 17 18 18 18 19 19 19 19 19
16 16 16 15 15 14 13 13 13 13 13 12 12 11 12 11 11 11 12 12 13 13 13 13 14 14 15 15 16 16 16 17 18 18 18 19 19 20 20 21 21 21 21 21
17 17 17 17 17 15 13 14 14 14 14 13 12 12 13 13 13 13 14 14 15 15 15 15 16 16 17 18 18 19 19 20 20 20 21 21 22 22 23 23 23 23 23 23
19 19 19 18 18 17 15 16 16 15 14 14 14 14 14 14 15 16 16 16 16 17 17 17 17 18 18 19 20 21 21 22 22 23 23 23 24 24 25 25 25 25 26 26
20 20 20 20 20 18 17 18 17 16 16 16 16 16 16 16 17 17 18 18 18 18 18 19 19 19 20 21 21 22 23 23 24 24 25 26 26 27 27 27 27 28 28 28
21 21 21 22 21 19 20 19 19 18 18 17 17 17 18 18 19 19 19 19 20 20 20 20 20 21 22 22 23 24 25 25 26 26 27 28 29 29 30 30 30 31 30 30
24 23 23 23 22 22 22 22 21 20 20 20 19 20 20 20 21 21 22 22 22 22 22 23 23 23 23 24 25 26 27 27 28 29 30 31 31 32 32 32 33 33 33 33
26 26 25 25 24 24 24 23 22 22 22 22 22 22 22 23 23 23 24 24 25 25 25 25 26 26 27 27 28 28 29 29 30 31 32 33 33 33 33 34 34 35 35 36
28 28 27 26 26 26 25 25 25 24 24 24 25 25 25 25 25 26 26 27 27 27 28 28 28 29 29 30 30 31 31 32 32 33 34 34 34 34 35 35 36 37 38 38
Wind_Direction
171 174 176 183 183 181 184 179 180 180 185 187 190 193 196 199 200 201 200 201 201 206 217 220 207 216 227 232 237 249 260 276 291 299 304 310 317 319 318 319 322 323 325 326
169 166 166 179 180 178 179 175 179 183 182 182 189 196 190 193 193 197 195 198 196 197 199 199 203 209 218 224 233 248 261 273 283 292 299 309 316 318 320 320 320 321 324 327
166 160 170 177 172 175 174 173 181 186 181 183 187 187 183 184 186 186 185 189 195 198 198 200 201 202 205 217 232 250 260 268 279 290 298 306 313 317 319 322 322 321 323 325
165 163 168 171 169 171 175 177 179 184 185 183 184 179 175 178 178 178 182 190 196 201 203 203 206 210 212 225 243 257 267 274 281 289 296 304 311 315 318 321 323 324 326 326
165 166 169 171 170 173 170 170 171 177 171 172 178 182 176 173 173 179 180 190 197 200 201 203 209 211 218 236 249 259 270 280 285 292 297 304 310 313 317 320 322 324 326 328
163 166 172 170 168 171 165 165 169 173 173 170 168 171 172 171 175 185 185 186 197 202 205 209 212 213 225 240 248 257 269 280 291 297 301 307 312 316 319 322 324 325 327 329
167 168 171 171 170 172 175 178 180 180 176 169 171 169 164 168 177 188 190 189 196 200 202 204 208 213 228 243 253 262 271 280 289 297 303 309 313 317 320 323 325 327 328 329
166 167 165 167 169 174 185 194 191 189 178 171 176 175 166 172 184 187 185 187 191 196 200 204 212 221 238 250 262 268 274 282 291 298 303 307 310 314 319 322 324 328 330 330
159 155 155 159 166 178 184 191 192 186 179 181 181 180 184 187 197 194 197 197 195 200 207 216 226 229 240 254 264 273 282 290 298 303 305 307 312 314 318 323 326 328 330 331
160 159 155 158 172 180 183 181 192 200 195 186 175 173 177 174 194 199 195 196 199 205 214 224 232 235 243 252 262 275 287 295 301 305 308 312 315 317 321 325 328 329 330 331
174 176 173 174 178 176 183 188 200 206 203 188 171 164 165 168 176 181 189 192 200 204 212 221 226 230 242 256 267 278 286 293 297 302 305 310 315 319 321 324 327 328 328 329
186 185 183 181 184 194 201 207 208 211 208 196 187 170 180 166 166 171 183 194 206 212 224 235 234 238 251 261 268 280 289 293 297 301 304 309 314 316 317 320 324 326 327 328
196 197 194 190 197 203 209 217 220 220 219 211 208 199 202 190 183 192 205 219 226 230 239 243 245 250 255 260 270 281 287 291 296 301 303 307 311 314 317 319 321 324 325 326
204 206 206 204 205 213 219 221 227 236 233 227 223 221 221 225 227 229 237 243 244 245 247 249 253 259 266 270 275 282 287 291 294 298 302 305 310 314 317 319 320 321 322 323
214 214 211 211 211 216 218 226 236 241 242 245 246 237 229 233 243 252 257 257 254 251 255 258 261 265 268 271 275 281 286 290 293 296 301 304 308 312 314 315 317 318 318 319
224 222 221 221 222 222 223 227 234 240 242 245 243 239 237 238 247 252 255 256 255 253 257 259 262 265 267 271 278 283 286 291 295 298 299 302 305 308 312 313 314 315 315 314
230 230 230 232 234 233 230 229 234 238 242 246 245 246 245 246 250 253 255 257 256 255 258 261 264 267 269 272 277 281 284 288 292 295 297 299 302 305 307 308 309 309 311 311
232 234 235 236 237 238 236 235 239 243 244 246 246 248 249 248 252 257 260 261 261 259 259 262 265 270 273 275 278 281 284 287 289 292 294 296 299 301 303 304 305 306 306 306
230 233 238 240 241 241 239 240 242 244 245 248 249 253 256 255 257 260 264 265 265 264 266 268 270 273 276 278 280 282 284 286 289 291 293 295 297 299 300 301 301 302 303 303
235 236 240 241 243 243 241 241 244 246 247 252 255 257 259 260 263 266 266 268 269 269 270 271 273 275 278 281 283 284 284 285 287 290 292 294 296 296 297 298 298 299 300 301
240 240 243 244 245 245 244 245 247 248 250 251 253 256 259 262 263 264 267 269 272 271 272 273 275 276 278 280 283 284 285 285 286 287 289 291 293 294 295 296 297 298 298 299
243 243 245 247 248 249 249 248 249 250 250 251 253 256 259 261 264 266 269 271 273 272 272 274 277 279 281 282 284 285 286 286 286 287 289 290 291 292 293 294 294 296 296 296
244 246 248 248 250 251 250 251 251 250 252 254 256 257 259 263 266 268 270 272 274 274 274 276 278 280 283 285 286 287 287 287 288 288 289 290 291 291 292 292 293 294 294 294
246 248 250 250 250 250 251 252 252 252 253 255 257 259 262 265 268 270 272 274 275 276 277 279 280 281 283 285 286 287 288 288 289 289 290 290 290 291 291 292 293 293 293 293
248 250 251 252 251 251 252 253 254 255 257 258 260 263 265 267 268 271 273 274 275 277 278 279 280 282 284 285 287 288 288 289 289 290 290 290 291 292 292 292 292 293 293 293
249 251 251 251 251 252 253 255 256 257 258 259 261 263 265 267 268 270 273 275 276 277 278 278 280 282 283 285 286 287 288 289 289 290 290 291 290 291 292 292 293 293 292 292
Height
5825 5827 5828 5830 5831 5832 5834 5835 5837 5838 5839 5841 5842 5844 5846 5847 5849 5850 5852 5853 5855 5856 5857 5858 5859 5860 5861 5862 5862 5863 5863 5863 5863 5863 5862 5861 5860 5859 5858 5856 5854 5853 5851 5848
5826 5827 5829 5829 5830 5831 5833 5834 5836 5837 5838 5840 5841 5842 5844 5845 5847 5849 5850 5852 5854 5855 5856 5857 5858 5859 5860 5860 5861 5861 5862 5862 5862 5861 5861 5860 5859 5857 5856 5854 5853 5851 5849 5846
5826 5828 5828 5829 5830 5831 5833 5834 5836 5837 5838 5839 5841 5842 5843 5845 5846 5848 5849 5851 5853 5854 5855 5856 5857 5858 5859 5859 5860 5860 5860 5860 5860 5860 5859 5858 5857 5856 5855 5853 5851 5849 5846 5844
5826 5827 5828 5829 5830 5831 5833 5834 5835 5836 5837 5839 5840 5841 5843 5844 5845 5847 5848 5850 5851 5853 5854 5855 5856 5857 5857 5858 5858 5859 5859 5859 5859 5858 5857 5856 5855 5854 5852 5851 5849 5847 5844 5842
5827 5828 5828 5829 5830 5831 5832 5833 5834 5836 5837 5838 5839 5841 5843 5843 5845 5846 5848 5849 5850 5851 5852 5853 5854 5855 5856 5857 5857 5857 5858 5857 5857 5856 5855 5854 5853 5852 5850 5849 5847 5845 5842 5840
5827 5828 5829 5830 5831 5832 5832 5834 5835 5836 5837 5838 5839 5840 5842 5843 5844 5846 5847 5848 5849 5850 5851 5852 5853 5854 5855 5855 5856 5856 5856 5856 5855 5854 5853 5852 5851 5850 5848 5846 5844 5842 5840 5838
5827 5828 5828 5830 5831 5832 5833 5834 5835 5836 5837 5838 5839 5839 5842 5842 5844 5845 5846 5847 5848 5849 5849 5850 5852 5852 5853 5854 5854 5854 5854 5854 5853 5852 5851 5850 5849 5847 5846 5844 5842 5840 5838 5836
5827 5828 5829 5830 5831 5831 5832 5834 5836 5836 5837 5837 5838 5839 5841 5841 5842 5843 5844 5845 5846 5847 5848 5849 5850 5851 5852 5852 5852 5852 5852 5852 5851 5851 5850 5849 5847 5846 5844 5842 5841 5838 5836 5834
5827 5828 5829 5829 5831 5832 5832 5833 5834 5835 5836 5836 5837 5838 5839 5839 5840 5841 5843 5844 5845 5846 5847 5848 5849 5849 5850 5850 5850 5851 5850 5850 5849 5848 5847 5846 5845 5844 5842 5840 5838 5836 5834 5832
5828 5828 5829 5829 5830 5831 5833 5833 5834 5835 5835 5835 5836 5837 5839 5838 5839 5840 5841 5843 5844 5845 5846 5847 5847 5848 5848 5848 5849 5849 5848 5848 5847 5846 5845 5844 5843 5842 5840 5838 5836 5834 5832 5829
5827 5829 5829 5830 5830 5831 5833 5833 5833 5834 5834 5835 5836 5839 5838 5838 5838 5839 5841 5842 5843 5844 5845 5845 5846 5847 5847 5847 5847 5847 5847 5846 5845 5844 5843 5842 5841 5839 5838 5836 5834 5832 5830 5827
5826 5828 5828 5830 5830 5831 5832 5832 5833 5834 5834 5835 5836 5840 5837 5837 5838 5838 5840 5841 5842 5843 5843 5844 5844 5845 5845 5845 5846 5845 5845 5844 5843 5842 5841 5840 5838 5837 5835 5834 5832 5829 5827 5825
5826 5827 5828 5829 5831 5831 5830 5831 5832 5832 5833 5833 5835 5839 5836 5836 5837 5838 5839 5840 5840 5841 5842 5842 5843 5843 5843 5843 5843 5843 5843 5842 5841 5840 5839 5838 5836 5834 5833 5831 5829 5827 5824 5822
5824 5825 5827 5828 5828 5828 5829 5830 5830 5831 5832 5833 5834 5835 5836 5836 5836 5837 5838 5838 5839 5839 5840 5840 5841 5841 5841 5841 5841 5841 5840 5839 5838 5838 5836 5835 5833 5832 5830 5828 5826 5824 5821 5819
5822 5824 5824 5826 5826 5827 5828 5828 5829 5830 5831 5832 5833 5834 5835 5835 5835 5836 5836 5836 5837 5837 5838 5838 5839 5839 5839 5839 5838 5838 5837 5837 5836 5835 5833 5832 5830 5829 5827 5825 5823 5820 5818 5816
5820 5821 5822 5824 5824 5825 5826 5826 5827 5828 5829 5830 5831 5832 5833 5833 5834 5834 5834 5835 5835 5835 5835 5836 5836 5836 5836 5836 5835 5835 5834 5833 5832 5831 5830 5829 5827 5825 5823 5821 5819 5817 5814 5812
5817 5819 5820 5821 5821 5822 5824 5825 5825 5826 5827 5828 5829 5831 5831 5831 5831 5832 5832 5832 5832 5832 5833 5833 5833 5833 5833 5833 5832 5832 5831 5830 5829 5828 5827 5825 5824 5822 5820 5817 5815 5813 5810 5808
5814 5815 5817 5818 5820 5820 5824 5822 5822 5823 5824 5825 5826 5827 5828 5829 5829 5829 5829 5829 5829 5830 5830 5829 5829 5829 5829 5829 5828 5828 5827 5826 5825 5824 5822 5821 5819 5817 5815 5813 5811 5808 5806 5804
5810 5811 5813 5814 5815 5817 5818 5819 5819 5820 5821 5821 5822 5823 5824 5824 5825 5825 5825 5825 5825 5825 5825 5825 5825 5825 5824 5824 5824 5823 5822 5821 5820 5819 5817 5816 5814 5812 5810 5808 5806 5803 5801 5799
5805 5807 5809 5810 5810 5812 5816 5815 5815 5817 5817 5818 5818 5819 5820 5820 5821 5822 5821 5821 5821 5821 5821 5820 5820 5820 5819 5819 5818 5818 5817 5816 5814 5813 5812 5810 5808 5806 5804 5802 5800 5798 5795 5793
5800 5802 5803 5804 5805 5807 5810 5810 5811 5813 5815 5814 5814 5815 5815 5816 5817 5817 5817 5817 5816 5816 5815 5815 5815 5815 5814 5813 5813 5812 5810 5810 5808 5807 5805 5804 5802 5800 5798 5796 5793 5791 5789 5786
5795 5797 5798 5799 5800 5805 5804 5805 5807 5808 5808 5809 5810 5810 5811 5811 5811 5812 5812 5811 5811 5811 5810 5810 5809 5809 5808 5807 5806 5805 5804 5803 5801 5800 5798 5797 5795 5793 5790 5788 5786 5784 5781 5779
5790 5792 5792 5794 5797 5798 5798 5799 5801 5802 5803 5804 5804 5805 5805 5806 5806 5806 5806 5806 5805 5805 5804 5804 5803 5802 5801 5800 5799 5798 5796 5795 5794 5792 5790 5789 5786 5784 5782 5780 5778 5775 5773 5770
5783 5784 5786 5787 5789 5791 5792 5793 5794 5795 5797 5798 5798 5799 5800 5800 5800 5800 5800 5799 5799 5798 5798 5797 5796 5795 5794 5793 5792 5790 5789 5787 5785 5784 5782 5780 5777 5775 5773 5770 5768 5766 5763 5761
5776 5777 5778 5780 5782 5783 5785 5786 5787 5789 5790 5791 5792 5792 5793 5793 5793 5793 5793 5792 5792 5791 5790 5790 5789 5788 5787 5785 5784 5782 5780 5779 5777 5774 5772 5770 5768 5765 5763 5761 5758 5756 5753 5751
5768 5770 5772 5773 5775 5776 5778 5779 5780 5781 5782 5783 5784 5785 5785 5785 5785 5785 5785 5784 5784 5783 5782 5782 5781 5780 5778 5777 5775 5773 5771 5769 5767 5765 5763 5760 5758 5755 5753 5751 5748 5745 5742 5740